sat.trackr.live / text

‹ back to catalog

STARLINK-2292

NORAD 48023 · 2021-024AY

PAYLOAD ACTIVE UNKNOWN

§ Identity

Operator
Country
US
Launch date
2021-03-24
Launch site
AFETR
Launch vehicle
Mass (kg)
RCS (m²)

Purposes: comms

External: N2YO · Heavens-Above · Gunter

§ Orbital elements

Epoch: 2026-09-20T04:06:58.197888Z

Period
92.71 min
Inclination
53.1118°
Eccentricity
0.0001782
Mean motion
15.53152812 rev/d
Perigee alt
406.3 km
Apogee alt
408.7 km
Semi-major
6,785.7 km
B*
9.6672e-4
RAAN
130.3696°
Arg perigee
210.0258°
Mean anomaly
150.0651°
Rev number
30,464

§ Raw data

STARLINK-22921 48023U 21024AY  26263.17150692  .00061692  00000+0  96672-3 0  99922 48023  53.1118 130.3696 0001782 210.0258 150.0651 15.53152812304640

JSON: /api/v1/satellites/48023 · /tle

For live sub-satellite position, see the globe view (requires WebGL).

§ Visibility from observer

Set your observer location to see the next 7 days of passes ≥ 10°. The values pass through the URL so the page stays shareable.

No JS? Fill the form by hand. The geolocation button needs JavaScript.